DMSP 5D-3 F16 (USA 172)

Last updated on Thu Nov 21 2024 00:02:19 GMT+0000 (Coordinated Universal Time)

1 28054U 03048A 24325.59666052 .00000295 00000+0 17874-3 0 9994 2 28054 99.0211 333.5594 0006929 338.5175 118.7865 14.14203805 88407
UTC large
Height (km)
Speed (km/s)
/
Latitude / Longitude
Inclination (degrees)
Orbital Period (minutes)
Azimuth
Elevation
Range (km)
Doppler Factor

Next 0 passes for location: London (51.5072 / 0.1276)

Sorry there are no passes over London.